This is the latest recevied weather packets stored in our database for station/object KE5VT. If no packets are shown the sender has not sent any weather packets the latest 10 day(s).
| Time | Temp. | Humidity | Pressure | Rain* | Wind** | Luminosity | Snow |
|---|---|---|---|---|---|---|---|
| 1787424580 | 25.56° C | 84% | 1011.8 hPa | 0 mm | - | 184 W/m² | - |
| 1787424277 | 25.56° C | 85% | 1011.8 hPa | 0 mm | - | 165 W/m² | - |
| 1787423972 | 25.56° C | 85% | 1011.9 hPa | 0 mm | - | 179 W/m² | - |
| 1787423668 | 25.56° C | 85% | 1011.8 hPa | 0 mm | - | 160 W/m² | - |
| 1787423364 | 25.56° C | 85% | 1012.1 hPa | 0 mm | - | 126 W/m² | - |
| 1787423061 | 25° C | 86% | 1012.2 hPa | 0 mm | - | 97 W/m² | - |
| 1787422760 | 25.56° C | 85% | 1012.1 hPa | 0 mm | - | 110 W/m² | - |
| 1787422457 | 25.56° C | 85% | 1012.1 hPa | 0 mm | - | 115 W/m² | - |
| 1787422152 | 25.56° C | 84% | 1012.4 hPa | 0 mm | - | 99 W/m² | - |
| 1787421849 | 25.56° C | 85% | 1012.4 hPa | 0 mm | - | 114 W/m² | - |
| 1787421548 | 25.56° C | 85% | 1012.6 hPa | 0 mm | - | 135 W/m² | - |
| 1787421245 | 25.56° C | 84% | 1012.5 hPa | 0 mm | - | 132 W/m² | - |
| 1787420945 | 25.56° C | 85% | 1012.3 hPa | 0 mm | - | 122 W/m² | - |
| 1787420641 | 25.56° C | 85% | 1012.4 hPa | 0 mm | - | 130 W/m² | - |
| 1787420336 | 25.56° C | 85% | 1012.4 hPa | 0 mm | - | 103 W/m² | - |
| 1787420033 | 25.56° C | 85% | 1012.3 hPa | 0 mm | - | 91 W/m² | - |
| 1787419729 | 26.11° C | 83% | 1012.4 hPa | 0 mm | - | 94 W/m² | - |
| 1787419424 | 25.56° C | 84% | 1012.4 hPa | 0 mm | - | 114 W/m² | - |
| 1787419120 | 25.56° C | 85% | 1012.2 hPa | 0 mm | - | 138 W/m² | - |
| 1787418815 | 25.56° C | 84% | 1012.4 hPa | 0 mm | - | 195 W/m² | - |
| 1787418511 | 25.56° C | 85% | 1012.5 hPa | 0 mm | - | 232 W/m² | - |
| 1787418207 | 25° C | 87% | 1012.5 hPa | 0 mm | - | 208 W/m² | - |
| 1787417903 | 24.44° C | 87% | 1012.6 hPa | 0 mm | - | 168 W/m² | - |
| 1787417599 | 25° C | 86% | 1012.6 hPa | 0 mm | - | 125 W/m² | - |
| 1787417293 | 25° C | 87% | 1012.6 hPa | 0 mm | - | 99 W/m² | - |
* Rain latest hour (hover to see other rain measurements)
** Current wind speed in m/s (hover to see current wind gust speed)